User: anonymous   Login
Location: Caltech
(34.1382°N, 118.1253°W)
Time: 18:40:39
(UTC-07:00)
Language:

Cosmos 1606 - Orbit

View from above orbital plane
View from above orbital plane
View from above satellite
View from above satellite

Ground track
Ground track

The orbit data is extracted from the following two-line orbital elements,

1 15369U 84111A   15111.21447923  .00006002  00000-0  33710-3 0  9995
2 15369 082.5290 176.4750 0021004 105.5289 254.8263 15.12947142661187
Epoch (UTC): 21 April 2015 05:08:51
Eccentricity: 0.0021004
inclination: 82.5290°
perigee height: 513 km
apogee height: 542 km
right ascension of ascending node: 176.4750°
argument of perigee: 105.5289°
revolutions per day: 15.12947142
mean anomaly at epoch: 254.8263°
orbit number at epoch: 66118

The dashed part of the orbit path shows where the satellite is in the earth's shadow,  

DLR